Tracking 27126 objects as of 30-Mar-2023
HD Live streaming from Space Station
objects crossing your sky now

STARLINK-3336

Track STARLINK-3336 now!
10-day predictions
STARLINK-3336 is classified as:


NORAD ID: 50818
Int'l Code: 2022-001R
Perigee: 546.0 km
Apogee: 547.7 km
Inclination: 53.2 °
Period: 95.4 minutes
Semi major axis: 6917 km
RCS: Unknown
Launch date: January 6, 2022
Source: United States (US)
Launch site: AIR FORCE EASTERN TEST RANGE (AFETR)
Your satellite tracking list
Your tracking list is empty




NASA's NSSDC Master Catalog

Two Line Element Set (TLE):
1 50818U 22001R   23088.89036153  .00027289  00000-0  17253-2 0  9991
2 50818  53.2165 318.5723 0001186  85.8119 274.3008 15.08855999 67997
Source of the keplerian elements: AFSPC